Location: Castillon
(43.0896°N, 0.2156°E)
Time: 04:40:46
(UTC+00:00)

Cosmos 1980 Rocket - Pass Details

Date: 19 October 2021
Orbit: 828 x 851 km, 71.0° (Epoch: 07 December)

Event Time Altitude Azimuth Distance (km) Brightness Sun altitude
Rises 18:10:13 0° 209° (SSW) 3,375 5.8 -11.7°
Reaches altitude 10° 18:12:39 10° 212° (SSW) 2,448 5.1 -12.2°
Maximum altitude 18:18:16 71° 296° (WNW) 893 2.5 -13.2°
Drops below altitude 10° 18:23:57 10° 21° (NNE) 2,479 4.4 -14.3°
Sets 18:26:26 0° 24° (NNE) 3,420 5.1 -14.7°
